Time,TemperatureF,DewpointF,PressureIn,WindDirection,WindDirectionDegrees,WindSpeedMPH,WindSpeedGustMPH,Humidity,HourlyPrecipIn,Conditions,Clouds,dailyrainin,SoftwareType,DateUTC
2013-04-01 00:03:00,53.2,52.0,29.80,WSW,252,1.0,5.0,97,0.00,,,0.00,weatherlink.com 1.10,2013-04-01 04:03:00,
2013-04-01 00:19:00,53.2,52.0,29.80,WSW,257,1.0,3.0,97,0.00,,,0.00,weatherlink.com 1.10,2013-04-01 04:19:00,
2013-04-01 00:34:00,53.0,52.0,29.80,WSW,252,0.0,5.0,97,0.00,,,0.00,weatherlink.com 1.10,2013-04-01 04:34:00,
2013-04-01 00:49:00,53.0,52.0,29.80,SW,233,0.0,3.0,97,0.00,,,0.00,weatherlink.com 1.10,2013-04-01 04:49:00,
2013-04-01 01:04:00,52.9,52.0,29.81,SW,228,3.0,3.0,97,0.00,,,0.00,weatherlink.com 1.10,2013-04-01 05:04:00,
2013-04-01 01:19:00,52.8,52.0,29.81,SW,232,2.0,4.0,97,0.00,,,0.00,weatherlink.com 1.10,2013-04-01 05:19:00,
2013-04-01 01:34:00,52.6,52.0,29.80,SSW,213,4.0,6.0,97,0.00,,,0.00,weatherlink.com 1.10,2013-04-01 05:34:00,
2013-04-01 01:49:00,52.5,52.0,29.80,SW,216,1.0,5.0,97,0.00,,,0.00,weatherlink.com 1.10,2013-04-01 05:49:00,
2013-04-01 02:04:00,52.6,52.0,29.80,WSW,244,2.0,6.0,97,0.00,,,0.00,weatherlink.com 1.10,2013-04-01 06:04:00,
2013-04-01 02:19:00,52.9,52.0,29.80,WSW,240,5.0,6.0,97,0.00,,,0.00,weatherlink.com 1.10,2013-04-01 06:19:00,
2013-04-01 02:34:00,53.1,52.0,29.80,SSW,207,1.0,6.0,97,0.01,,,0.01,weatherlink.com 1.10,2013-04-01 06:34:00,
2013-04-01 02:49:00,53.2,52.0,29.80,SW,221,0.0,6.0,97,0.02,,,0.02,weatherlink.com 1.10,2013-04-01 06:49:00,
2013-04-01 03:04:00,53.2,52.0,29.80,SW,227,1.0,6.0,97,0.02,,,0.02,weatherlink.com 1.10,2013-04-01 07:04:00,
2013-04-01 03:19:00,53.3,53.0,29.80,WSW,252,2.0,4.0,97,0.02,,,0.02,weatherlink.com 1.10,2013-04-01 07:19:00,
2013-04-01 03:34:00,53.3,53.0,29.80,SW,229,3.0,6.0,97,0.03,,,0.04,weatherlink.com 1.10,2013-04-01 07:34:00,
2013-04-01 03:49:00,53.3,53.0,29.79,SW,229,0.0,2.0,97,0.03,,,0.05,weatherlink.com 1.10,2013-04-01 07:49:00,
2013-04-01 04:04:00,53.2,52.0,29.79,SW,229,0.0,3.0,97,0.03,,,0.05,weatherlink.com 1.10,2013-04-01 08:04:00,
2013-04-01 04:19:00,53.1,52.0,29.78,SW,229,0.0,2.0,97,0.03,,,0.05,weatherlink.com 1.10,2013-04-01 08:19:00,
2013-04-01 04:34:00,53.0,52.0,29.79,SW,229,2.0,2.0,97,0.01,,,0.05,weatherlink.com 1.10,2013-04-01 08:34:00,
2013-04-01 04:49:00,52.8,52.0,29.79,SW,229,0.0,4.0,97,0.00,,,0.05,weatherlink.com 1.10,2013-04-01 08:49:00,
2013-04-01 05:04:00,52.7,52.0,29.79,SW,229,0.0,2.0,97,0.00,,,0.05,weatherlink.com 1.10,2013-04-01 09:04:00,
2013-04-01 05:19:00,52.8,52.0,29.79,SW,229,0.0,3.0,97,0.00,,,0.05,weatherlink.com 1.10,2013-04-01 09:19:00,
2013-04-01 05:34:00,52.6,52.0,29.80,SW,229,1.0,3.0,97,0.00,,,0.05,weatherlink.com 1.10,2013-04-01 09:34:00,
2013-04-01 05:49:00,52.3,52.0,29.81,SW,229,0.0,3.0,97,0.00,,,0.05,weatherlink.com 1.10,2013-04-01 09:49:00,
2013-04-01 06:04:00,52.1,51.0,29.82,SW,229,0.0,2.0,97,0.00,,,0.05,weatherlink.com 1.10,2013-04-01 10:04:00,
2013-04-01 06:19:00,51.8,51.0,29.82,SW,229,1.0,2.0,97,0.00,,,0.05,weatherlink.com 1.10,2013-04-01 10:19:00,
2013-04-01 06:34:00,51.5,51.0,29.82,SW,229,0.0,0.0,97,0.00,,,0.05,weatherlink.com 1.10,2013-04-01 10:34:00,
2013-04-01 06:49:00,51.0,50.0,29.82,SW,229,0.0,1.0,97,0.00,,,0.05,weatherlink.com 1.10,2013-04-01 10:49:00,
2013-04-01 07:04:00,50.7,50.0,29.83,SW,229,0.0,0.0,97,0.00,,,0.05,weatherlink.com 1.10,2013-04-01 11:04:00,
2013-04-01 07:34:00,50.1,49.0,29.84,SW,229,0.0,0.0,97,0.00,,,0.05,weatherlink.com 1.10,2013-04-01 11:34:00,
2013-04-01 07:49:00,49.8,49.0,29.84,SW,229,0.0,0.0,97,0.00,,,0.05,weatherlink.com 1.10,2013-04-01 11:49:00,
2013-04-01 08:04:00,49.4,49.0,29.85,SW,229,0.0,2.0,97,0.00,,,0.05,weatherlink.com 1.10,2013-04-01 12:04:00,
2013-04-01 08:19:00,49.1,48.0,29.85,SW,229,0.0,0.0,97,0.00,,,0.05,weatherlink.com 1.10,2013-04-01 12:19:00,
2013-04-01 08:34:00,49.2,48.0,29.85,SW,229,0.0,0.0,97,0.00,,,0.05,weatherlink.com 1.10,2013-04-01 12:34:00,
2013-04-01 08:49:00,50.4,50.0,29.85,SW,229,1.0,2.0,97,0.00,,,0.05,weatherlink.com 1.10,2013-04-01 12:49:00,
2013-04-01 09:04:00,51.6,51.0,29.84,WNW,301,0.0,3.0,97,0.00,,,0.05,weatherlink.com 1.10,2013-04-01 13:04:00,
2013-04-01 09:19:00,51.4,50.0,29.84,WNW,300,0.0,3.0,96,0.00,,,0.05,weatherlink.com 1.10,2013-04-01 13:19:00,
2013-04-01 09:34:00,53.2,50.0,29.84,WSW,248,1.0,6.0,90,0.00,,,0.05,weatherlink.com 1.10,2013-04-01 13:34:00,
2013-04-01 09:49:00,54.0,51.0,29.84,SW,231,2.0,4.0,90,0.00,,,0.05,weatherlink.com 1.10,2013-04-01 13:49:00,
2013-04-01 10:04:00,54.8,51.0,29.84,West,275,6.0,7.0,88,0.00,,,0.05,weatherlink.com 1.10,2013-04-01 14:04:00,
2013-04-01 10:19:00,56.4,51.0,29.84,WSW,254,3.0,6.0,83,0.00,,,0.05,weatherlink.com 1.10,2013-04-01 14:19:00,
2013-04-01 10:34:00,57.6,52.0,29.84,WSW,250,1.0,7.0,80,0.00,,,0.05,weatherlink.com 1.10,2013-04-01 14:34:00,
2013-04-01 10:50:00,59.0,48.0,29.84,WNW,300,2.0,7.0,66,0.00,,,0.05,weatherlink.com 1.10,2013-04-01 14:50:00,
2013-04-01 11:05:00,60.3,46.0,29.84,North,5,2.0,7.0,59,0.00,,,0.05,weatherlink.com 1.10,2013-04-01 15:05:00,
2013-04-01 11:20:00,61.5,49.0,29.83,NW,321,2.0,7.0,64,0.00,,,0.05,weatherlink.com 1.10,2013-04-01 15:20:00,
2013-04-01 11:35:00,62.3,48.0,29.84,SW,232,6.0,14.0,61,0.00,,,0.05,weatherlink.com 1.10,2013-04-01 15:35:00,
2013-04-01 11:50:00,62.8,46.0,29.84,NW,324,1.0,5.0,54,0.00,,,0.05,weatherlink.com 1.10,2013-04-01 15:50:00,
2013-04-01 12:05:00,64.4,48.0,29.83,WNW,285,2.0,12.0,56,0.00,,,0.05,weatherlink.com 1.10,2013-04-01 16:05:00,
2013-04-01 12:20:00,64.9,47.0,29.83,West,267,4.0,16.0,52,0.00,,,0.05,weatherlink.com 1.10,2013-04-01 16:20:00,
2013-04-01 12:35:00,65.4,48.0,29.83,WNW,288,3.0,11.0,53,0.00,,,0.05,weatherlink.com 1.10,2013-04-01 16:35:00,
2013-04-01 12:50:00,66.8,46.0,29.82,WSW,249,5.0,19.0,48,0.00,,,0.05,weatherlink.com 1.10,2013-04-01 16:50:00,
2013-04-01 13:20:00,68.8,45.0,29.81,WNW,283,2.0,10.0,42,0.00,,,0.05,weatherlink.com 1.10,2013-04-01 17:20:00,
2013-04-01 13:35:00,68.5,44.0,29.81,NNW,329,1.0,14.0,41,0.00,,,0.05,weatherlink.com 1.10,2013-04-01 17:35:00,
2013-04-01 13:50:00,69.0,45.0,29.80,NW,315,5.0,16.0,42,0.00,,,0.05,weatherlink.com 1.10,2013-04-01 17:50:00,
2013-04-01 14:05:00,68.5,44.0,29.80,West,280,4.0,11.0,42,0.00,,,0.05,weatherlink.com 1.10,2013-04-01 18:05:00,
2013-04-01 14:20:00,68.4,42.0,29.79,WNW,290,1.0,16.0,38,0.00,,,0.05,weatherlink.com 1.10,2013-04-01 18:20:00,
2013-04-01 14:35:00,68.6,41.0,29.79,NW,320,5.0,21.0,37,0.00,,,0.05,weatherlink.com 1.10,2013-04-01 18:35:00,
2013-04-01 14:50:00,70.5,44.0,29.79,NNW,342,5.0,16.0,38,0.00,,,0.05,weatherlink.com 1.10,2013-04-01 18:50:00,
2013-04-01 15:05:00,71.0,42.0,29.78,West,281,4.0,13.0,35,0.00,,,0.05,weatherlink.com 1.10,2013-04-01 19:05:00,
2013-04-01 15:20:00,68.7,43.0,29.78,WSW,250,9.0,22.0,39,0.00,,,0.05,weatherlink.com 1.10,2013-04-01 19:20:00,
2013-04-01 15:35:00,68.9,41.0,29.78,NW,309,4.0,19.0,37,0.00,,,0.05,weatherlink.com 1.10,2013-04-01 19:35:00,
2013-04-01 15:50:00,69.8,42.0,29.78,NW,315,6.0,18.0,36,0.00,,,0.05,weatherlink.com 1.10,2013-04-01 19:50:00,
2013-04-01 16:05:00,68.1,40.0,29.78,WNW,295,6.0,20.0,36,0.00,,,0.05,weatherlink.com 1.10,2013-04-01 20:05:00,
2013-04-01 16:20:00,68.0,42.0,29.78,WNW,292,6.0,17.0,39,0.00,,,0.05,weatherlink.com 1.10,2013-04-01 20:20:00,
2013-04-01 16:35:00,68.8,41.0,29.78,WNW,286,8.0,14.0,36,0.00,,,0.05,weatherlink.com 1.10,2013-04-01 20:35:00,
2013-04-01 16:50:00,67.3,41.0,29.78,NW,319,10.0,16.0,38,0.00,,,0.05,weatherlink.com 1.10,2013-04-01 20:50:00,
2013-04-01 17:05:00,68.5,41.0,29.78,WNW,286,10.0,16.0,37,0.00,,,0.05,weatherlink.com 1.10,2013-04-01 21:05:00,
2013-04-01 17:20:00,67.6,41.0,29.79,WNW,284,9.0,19.0,38,0.00,,,0.05,weatherlink.com 1.10,2013-04-01 21:20:00,
2013-04-01 17:35:00,66.4,42.0,29.79,WNW,295,5.0,12.0,41,0.00,,,0.05,weatherlink.com 1.10,2013-04-01 21:35:00,
2013-04-01 17:50:00,65.1,41.0,29.80,North,5,14.0,14.0,42,0.00,,,0.05,weatherlink.com 1.10,2013-04-01 21:50:00,
2013-04-01 18:05:00,64.3,41.0,29.80,WNW,302,6.0,13.0,42,0.00,,,0.05,weatherlink.com 1.10,2013-04-01 22:05:00,
2013-04-01 18:20:00,64.0,42.0,29.81,West,281,4.0,9.0,45,0.00,,,0.05,weatherlink.com 1.10,2013-04-01 22:20:00,
2013-04-01 18:35:00,63.2,41.0,29.81,NW,325,2.0,10.0,45,0.00,,,0.05,weatherlink.com 1.10,2013-04-01 22:35:00,
2013-04-01 18:50:00,62.7,42.0,29.81,NW,306,3.0,7.0,47,0.00,,,0.05,weatherlink.com 1.10,2013-04-01 22:50:00,
2013-04-01 19:05:00,62.4,42.0,29.81,NW,319,1.0,7.0,47,0.00,,,0.05,weatherlink.com 1.10,2013-04-01 23:05:00,
2013-04-01 19:20:00,61.2,42.0,29.82,NW,316,1.0,4.0,49,0.00,,,0.05,weatherlink.com 1.10,2013-04-01 23:20:00,
2013-04-01 19:35:00,60.0,42.0,29.82,WNW,290,2.0,7.0,52,0.00,,,0.05,weatherlink.com 1.10,2013-04-01 23:35:00,
2013-04-01 19:50:00,58.9,42.0,29.83,WNW,300,3.0,6.0,54,0.00,,,0.05,weatherlink.com 1.10,2013-04-01 23:50:00,
2013-04-01 20:05:00,58.2,42.0,29.83,NW,323,2.0,6.0,56,0.00,,,0.05,weatherlink.com 1.10,2013-04-02 00:05:00,
2013-04-01 20:20:00,57.3,42.0,29.84,NW,310,2.0,4.0,57,0.00,,,0.05,weatherlink.com 1.10,2013-04-02 00:20:00,
2013-04-01 20:35:00,57.2,41.0,29.84,NNW,342,3.0,4.0,56,0.00,,,0.05,weatherlink.com 1.10,2013-04-02 00:35:00,
2013-04-01 20:50:00,56.4,42.0,29.84,NNW,330,1.0,7.0,58,0.00,,,0.05,weatherlink.com 1.10,2013-04-02 00:50:00,
2013-04-01 21:05:00,54.2,41.0,29.85,WNW,300,2.0,3.0,62,0.00,,,0.05,weatherlink.com 1.10,2013-04-02 01:05:00,
2013-04-01 21:20:00,54.7,41.0,29.86,NW,326,3.0,5.0,60,0.00,,,0.05,weatherlink.com 1.10,2013-04-02 01:20:00,
2013-04-01 21:35:00,54.6,40.0,29.86,NW,325,2.0,7.0,59,0.00,,,0.05,weatherlink.com 1.10,2013-04-02 01:35:00,
2013-04-01 21:50:00,53.6,40.0,29.87,NW,319,1.0,7.0,60,0.00,,,0.05,weatherlink.com 1.10,2013-04-02 01:50:00,
2013-04-01 22:06:00,53.0,39.0,29.87,NW,319,0.0,3.0,60,0.00,,,0.05,weatherlink.com 1.10,2013-04-02 02:06:00,
2013-04-01 22:21:00,51.9,39.0,29.88,NW,313,1.0,8.0,62,0.00,,,0.05,weatherlink.com 1.10,2013-04-02 02:21:00,
2013-04-01 22:36:00,52.9,38.0,29.89,North,5,2.0,13.0,58,0.00,,,0.05,weatherlink.com 1.10,2013-04-02 02:36:00,
2013-04-01 22:51:00,51.5,37.0,29.91,NNW,342,2.0,17.0,59,0.00,,,0.05,weatherlink.com 1.10,2013-04-02 02:51:00,
2013-04-01 23:06:00,50.2,37.0,29.92,NE,46,1.0,16.0,62,0.00,,,0.05,weatherlink.com 1.10,2013-04-02 03:06:00,
2013-04-01 23:36:00,48.0,36.0,29.94,North,360,3.0,14.0,63,0.00,,,0.05,weatherlink.com 1.10,2013-04-02 03:36:00,
2013-04-01 23:51:00,47.3,36.0,29.94,North,355,1.0,12.0,65,0.00,,,0.05,weatherlink.com 1.10,2013-04-02 03:51:00,